Regional Weather Roundup
Issued by NWS

Home | Current Version | Previous Version | Graphics & Text | Print | Product List | Glossary On
Versions: 1 2 3 4 5 6 7 8 9 10 11 12 13 14 15 16 17 18 19 20 21 22 23 24 25 26 27 28 29 30 31 32 33 34 35 36 37 38 39 40 41 42 43 44 45 46 47 48 49 50
013
ASUS45 KTFX 291010
RWRMT
MONTANA REGIONAL WEATHER ROUNDUP
NATIONAL WEATHER SERVICE GREAT FALLS MT
400 AM MDT SAT APR 29 2017

NOTE: "FAIR" INDICATES FEW OR NO CLOUDS BELOW 12000 FEET WITH NO
SIGNIFICANT WEATHER AND/OR OBSTRUCTIONS TO VISIBILITY.

MTZ001>007-043-291100-
WEST OF THE DIVIDE

CITY           SKY/WX    TMP DP  RH WIND       PRES   REMARKS
KALISPELL      CLOUDY    40  39  97 CALM      30.21R
MISSOULA       CLOUDY    37  32  82 CALM      30.26R
BUTTE          MOCLDY    35  26  69 W6        30.18F WCI  30
MULLAN PASS    LGT SNOW  30  30 100 VRB3      30.19S FOG
ANACONDA         N/A     30  27  86 SW6       30.20S WCI  24
DEER LODGE       N/A     32  27  80 W3        30.23S
EUREKA           N/A     37  36  93 CALM      30.20R
HAMILTON         N/A     34  27  75 E6        30.24R WCI  29
LIBBY            N/A     30  30 100 CALM      30.21S
$$

MTZ008-052>055-291100-
SOUTHWEST MONTANA

CITY           SKY/WX    TMP DP  RH WIND       PRES   REMARKS
BOZEMAN        CLOUDY    35  33  92 S5        30.20S
DILLON         MOCLDY    33  28  81 S5        30.18R
W YELLOWSTONE  CLOUDY    21  19  93 S3        30.17R
THREE FORKS      N/A     32 -22   9 CALM      30.17R
$$

MTZ009-010-012-014-046-048-049-054-291100-
EAST SLOPES AND CENTRAL MONTANA

CITY           SKY/WX    TMP DP  RH WIND       PRES   REMARKS
CUT BANK       PTCLDY    32  30  92 CALM      30.13S
GREAT FALLS    CLEAR     34  29  82 CALM      30.16F
MALMSTROM AFB  CLEAR     30  29  96 S7        30.16F WCI  23
HELENA         CLOUDY    36  34  92 CALM      30.19R
AUGUSTA          N/A     32  32  98 SW5       30.14S
BOWMANS CRNR     N/A     31  30  99 S10       30.14S WCI  22
CHOTEAU          N/A     36  34  93 SW3       30.16S
FAIRFIELD        N/A     34  31  90 CALM      30.14F
POWER            N/A     32  31  98 S5        30.14F
RAYNESFORD       N/A     32  28  85 SE7       30.17S WCI  26
ULM              N/A     33  31  92 SE10      30.16F WCI  25
$$

MTZ011-013-016-021-045-047-050-051-291100-
NORTH CENTRAL MONTANA

CITY           SKY/WX    TMP DP  RH WIND       PRES   REMARKS
HAVRE          PTCLDY    29  27  92 SW7       30.18S WCI  22
LEWISTOWN      CLEAR     28  26  92 S5        30.18S
N BAR RANCH      N/A     32  28  86 W6        30.20S WCI  26
CHINOOK          N/A     28  28 100 CALM      30.19R
DENTON           N/A     30  28  92 MISG      30.15S
GEYSER           N/A     31  28  87 SW10      30.16S WCI  22
GRASS RANGE      N/A     31  30  95 NW5       30.15S
JUDITH GAP       N/A     31  28  90 S5        30.17S
STANFORD         N/A     31  27  85 CALM      30.16F
WINIFRED         N/A     37  33  84 SW3       30.17S
$$

MTZ017>020-022>027-061-062-291100-
NORTHEAST MONTANA

CITY           SKY/WX    TMP DP  RH WIND       PRES   REMARKS
GLASGOW        CLEAR     38  33  82 CALM      30.19R
JORDAN           N/A     29  25  85 CALM      30.19S
SIDNEY         MOCLDY    33  23  66 S5        30.19S
WOLF POINT     MOCLDY    33  30  88 W3        30.20R
MALTA          CLEAR     28  28 100 W3        30.19S
PLENTYWOOD       N/A     34  32  93 N3        30.17F
POPLAR           N/A     34  30  86 CALM      30.20S
$$

MTZ028>42-056>058-291100-
SOUTHCENTRAL AND SOUTHEAST MONTANA

CITY           SKY/WX    TMP DP  RH WIND       PRES   REMARKS
BAKER          CLOUDY    34  26  72 CALM      30.19S
BILLINGS       CLEAR     34  32  92 NW7       30.19S WCI  28
LIVINGSTON     CLOUDY    36  34  92 W3        30.18S
MILES CITY     CLOUDY    34  28  79 NW6       30.18S WCI  29
BIG TIMBER     CLEAR     32  32 100 W7        30.21S WCI  26
LAUREL           N/A     33  20  59 CALM      30.15F
ROUNDUP          N/A     36  31  82 SW3       30.08F
$$

REGIONAL REPORTS...DAKOTAS

CITY           SKY/WX    TMP DP  RH WIND       PRES   REMARKS
WILLISTON      PTCLDY    36  26  67 S3        30.17S
MINOT          CLOUDY    37  25  61 SW8       30.19R WCI  31
DICKINSON      PTCLDY    29  19  66 S5        30.18S
BEACH            N/A     30  27  86 S5        30.21S
TIOGA            N/A     34  19  55 CALM      30.19R
WATFORD CITY     N/A     34  23  64 CALM      30.17S
BISMARCK       CLEAR     30  22  72 CALM      30.24R
GRAND FORKS    CLEAR     31  25  78 CALM      30.25R
FARGO          CLEAR     26  23  88 CALM      30.24S
BUFFALO SD       N/A     34  26  72 SE7       30.16R WCI  28
RAPID CITY     PTCLDY    27  21  78 NW8       30.21R WCI  19
$$

REGIONAL REPORTS...WYOMING/IDAHO/WASHINGTON

CITY           SKY/WX    TMP DP  RH WIND       PRES   REMARKS
GILLETTE       CLOUDY    18  16  92 S7        30.21R WCI   9
SHERIDAN       CLOUDY    28  23  81 S6        30.21R WCI  22
BUFFALO WY     CLOUDY    29  17  61 SW8       30.20R WCI  21
CODY           CLOUDY    33  29  85 S5        30.19R
YELLOWSTONE LA   N/A     19  17  92 CALM      30.16R
IDAHO FALLS    CLEAR     31  26  82 N8        30.15R WCI  23
SALMON         CLEAR     30  25  80 CALM      30.22R
BOISE          CLEAR     39  30  70 CALM      30.19R
SPOKANE        PTCLDY    40  33  76 S9        30.20F
$$

REGIONAL REPORTS...ALBERTA

CITY           SKY/WX    TMP DP  RH WIND       PRES   REMARKS
EDMONTON       CLEAR     36  27  69 SW5       30.08S
CALGARY        MOCLDY    37  32  81 CALM      30.10S
LETHBRIDGE     MOCLDY    34  32  93 S8        30.12S WCI  27
MEDICINE HAT   CLEAR     30  27  86 S5        30.16S
WATERTON GATE    N/A     37  32  81 SW15G23     N/A  WCI  28
CARDSTON         N/A     32  32 100 E2          N/A
MILK RIVER       N/A     34  32  93 SW3         N/A
$$

REGIONAL REPORTS...SASKATCHEWAN

CITY           SKY/WX    TMP DP  RH WIND       PRES   REMARKS
SWIFT CURRENT  CLEAR     28  25  86 W8        30.14R WCI  20
REGINA         PTCLDY    32  32 100 S9        30.15F WCI  24
SASKATOON      CLOUDY    32  30  93 SW5       30.11R
CYPRESS HILLS    N/A     30  21  69 NW1         N/A
VAL MARIE        N/A     23  21  93 S1          N/A
ROCKGLEN         N/A     32  30  93 SW7         N/A  WCI  26
ASSINIBOIA       N/A     32  32 100 S5          N/A
$$




USA.gov is the U.S. government's official web portal to all federal, state and local government web resources and services.